owner,sensor,date,latitude,longitude,vertical_datum,mass_concentration_of_oxygen_in_sea_water,qcFlag 
SCCF RECON,ioos:station:SCCF:12:1,2009-05-01T00:00:00Z,26.4966,-82.1479,2.45,7.31,1111122 
SCCF RECON,ioos:station:SCCF:12:1,2009-05-01T01:00:00Z,26.4966,-82.1479,2.343,7.38,1111122 
SCCF RECON,ioos:station:SCCF:12:1,2009-05-01T02:00:00Z,26.4966,-82.1479,2.24,7.13,1111122 
SCCF RECON,ioos:station:SCCF:12:1,2009-05-01T03:00:00Z,26.4966,-82.1479,2.144,7.11,1111122 
SCCF RECON,ioos:station:SCCF:12:1,2009-05-01T04:00:00Z,26.4966,-82.1479,2.035,6.92,1111122 
SCCF RECON,ioos:station:SCCF:12:1,2009-05-01T05:00:00Z,26.4966,-82.1479,1.939,6.83,1111122 
SCCF RECON,ioos:station:SCCF:12:1,2009-05-01T06:00:00Z,26.4966,-82.1479,1.867,6.84,1111122 
SCCF RECON,ioos:station:SCCF:12:1,2009-05-01T07:00:00Z,26.4966,-82.1479,1.885,6.72,1111122 
SCCF RECON,ioos:station:SCCF:12:1,2009-05-01T08:00:00Z,26.4966,-82.1479,1.998,6.26,1111122 
SCCF RECON,ioos:station:SCCF:12:1,2009-05-01T09:00:00Z,26.4966,-82.1479,2.091,6.29,1111122 
SCCF RECON,ioos:station:SCCF:12:1,2009-05-01T10:00:00Z,26.4966,-82.1479,2.188,6.32,1111122 
SCCF RECON,ioos:station:SCCF:12:1,2009-05-01T11:00:00Z,26.4966,-82.1479,2.27,6.4,1111122 
SCCF RECON,ioos:station:SCCF:12:1,2009-05-01T12:00:00Z,26.4966,-82.1479,2.349,6.32,1111122 
SCCF RECON,ioos:station:SCCF:12:1,2009-05-01T13:00:00Z,26.4966,-82.1479,2.389,6.45,1111122 
SCCF RECON,ioos:station:SCCF:12:1,2009-05-01T14:00:00Z,26.4966,-82.1479,2.391,6.64,1111122 
SCCF RECON,ioos:station:SCCF:12:1,2009-05-01T15:00:00Z,26.4966,-82.1479,2.38,6.65,1111122 
SCCF RECON,ioos:station:SCCF:12:1,2009-05-01T16:00:00Z,26.4966,-82.1479,2.343,6.83,1111122 
SCCF RECON,ioos:station:SCCF:12:1,2009-05-01T17:00:00Z,26.4966,-82.1479,2.3,6.82,1111122 
SCCF RECON,ioos:station:SCCF:12:1,2009-05-01T18:00:00Z,26.4966,-82.1479,2.305,7.03,1111122 
SCCF RECON,ioos:station:SCCF:12:1,2009-05-01T19:00:00Z,26.4966,-82.1479,2.362,7.25,1111122 
SCCF RECON,ioos:station:SCCF:12:1,2009-05-01T20:00:00Z,26.4966,-82.1479,2.42,7.17,1111122 
SCCF RECON,ioos:station:SCCF:12:1,2009-05-01T21:00:00Z,26.4966,-82.1479,2.47,7.22,1111122 
SCCF RECON,ioos:station:SCCF:12:1,2009-05-01T22:00:00Z,26.4966,-82.1479,2.5,7.17,1111122 
SCCF RECON,ioos:station:SCCF:12:1,2009-05-01T23:00:00Z,26.4966,-82.1479,2.51,7.14,1111122 
SCCF RECON,ioos:station:SCCF:12:1,2009-05-02T00:00:00Z,26.4966,-82.1479,2.49,6.85,1111122 
SCCF RECON,ioos:station:SCCF:12:1,2009-05-02T01:00:00Z,26.4966,-82.1479,2.43,7.05,1111122 
SCCF RECON,ioos:station:SCCF:12:1,2009-05-02T02:00:00Z,26.4966,-82.1479,2.34,6.98,1111122 
SCCF RECON,ioos:station:SCCF:12:1,2009-05-02T03:00:00Z,26.4966,-82.1479,2.24,7.14,1111122 
SCCF RECON,ioos:station:SCCF:12:1,2009-05-02T04:00:00Z,26.4966,-82.1479,2.13,6.62,1111122 
SCCF RECON,ioos:station:SCCF:12:1,2009-05-02T05:00:00Z,26.4966,-82.1479,2.02,6.86,1111122 
SCCF RECON,ioos:station:SCCF:12:1,2009-05-02T06:00:00Z,26.4966,-82.1479,1.92,6.75,1111122 
SCCF RECON,ioos:station:SCCF:12:1,2009-05-02T07:00:00Z,26.4966,-82.1479,1.86,6.79,1111122 
SCCF RECON,ioos:station:SCCF:12:1,2009-05-02T08:00:00Z,26.4966,-82.1479,1.872,6.67,1111122 
SCCF RECON,ioos:station:SCCF:12:1,2009-05-02T09:00:00Z,26.4966,-82.1479,1.995,6.38,1111122 
SCCF RECON,ioos:station:SCCF:12:1,2009-05-02T10:00:00Z,26.4966,-82.1479,2.11,6.36,1111122 
SCCF RECON,ioos:station:SCCF:12:1,2009-05-02T11:00:00Z,26.4966,-82.1479,2.203,6.16,1111122 
SCCF RECON,ioos:station:SCCF:12:1,2009-05-02T12:00:00Z,26.4966,-82.1479,2.282,6.4,1111122 
SCCF RECON,ioos:station:SCCF:12:1,2009-05-02T13:00:00Z,26.4966,-82.1479,2.347,6.43,1111122 
SCCF RECON,ioos:station:SCCF:12:1,2009-05-02T14:00:00Z,26.4966,-82.1479,2.38,6.34,1111122 
SCCF RECON,ioos:station:SCCF:12:1,2009-05-02T15:00:00Z,26.4966,-82.1479,2.369,6.55,1111122 
SCCF RECON,ioos:station:SCCF:12:1,2009-05-02T16:00:00Z,26.4966,-82.1479,2.31,6.67,1111122 
SCCF RECON,ioos:station:SCCF:12:1,2009-05-02T17:00:00Z,26.4966,-82.1479,2.248,6.8,1111122 
SCCF RECON,ioos:station:SCCF:12:1,2009-05-02T18:00:00Z,26.4966,-82.1479,2.201,6.79,1111122 
SCCF RECON,ioos:station:SCCF:12:1,2009-05-02T19:00:00Z,26.4966,-82.1479,2.171,7.13,1111122 
SCCF RECON,ioos:station:SCCF:12:1,2009-05-02T20:00:00Z,26.4966,-82.1479,2.188,7.18,1111122 
SCCF RECON,ioos:station:SCCF:12:1,2009-05-02T21:00:00Z,26.4966,-82.1479,2.252,7.24,1111122 
SCCF RECON,ioos:station:SCCF:12:1,2009-05-02T22:00:00Z,26.4966,-82.1479,2.334,7.33,1111122 
SCCF RECON,ioos:station:SCCF:12:1,2009-05-02T23:00:00Z,26.4966,-82.1479,2.4,7.19,1111122 
SCCF RECON,ioos:station:SCCF:12:1,2009-05-03T00:00:00Z,26.4966,-82.1479,2.44,7.0,1111122 
SCCF RECON,ioos:station:SCCF:12:1,2009-05-03T01:00:00Z,26.4966,-82.1479,2.44,6.75,1111122 
SCCF RECON,ioos:station:SCCF:12:1,2009-05-03T02:00:00Z,26.4966,-82.1479,2.41,6.88,1111122 
SCCF RECON,ioos:station:SCCF:12:1,2009-05-03T03:00:00Z,26.4966,-82.1479,2.35,6.93,1111122 
SCCF RECON,ioos:station:SCCF:12:1,2009-05-03T04:00:00Z,26.4966,-82.1479,2.27,6.93,1111122 
SCCF RECON,ioos:station:SCCF:12:1,2009-05-03T05:00:00Z,26.4966,-82.1479,2.18,6.75,1111122 
SCCF RECON,ioos:station:SCCF:12:1,2009-05-03T06:00:00Z,26.4966,-82.1479,2.098,6.57,1111122 
SCCF RECON,ioos:station:SCCF:12:1,2009-05-03T07:00:00Z,26.4966,-82.1479,2.01,6.28,1111122 
SCCF RECON,ioos:station:SCCF:12:1,2009-05-03T08:00:00Z,26.4966,-82.1479,1.95,6.41,1111122 
SCCF RECON,ioos:station:SCCF:12:1,2009-05-03T09:00:00Z,26.4966,-82.1479,1.982,6.41,1111122 
SCCF RECON,ioos:station:SCCF:12:1,2009-05-03T10:00:00Z,26.4966,-82.1479,2.115,6.26,1111122 
SCCF RECON,ioos:station:SCCF:12:1,2009-05-03T11:00:00Z,26.4966,-82.1479,2.24,6.13,1111122 
SCCF RECON,ioos:station:SCCF:12:1,2009-05-03T12:00:00Z,26.4966,-82.1479,2.342,6.33,1111122 
SCCF RECON,ioos:station:SCCF:12:1,2009-05-03T13:00:00Z,26.4966,-82.1479,2.421,6.33,1111122 
SCCF RECON,ioos:station:SCCF:12:1,2009-05-03T14:00:00Z,26.4966,-82.1479,2.487,6.95,1111122 
SCCF RECON,ioos:station:SCCF:12:1,2009-05-03T15:00:00Z,26.4966,-82.1479,2.502,7.0,1111122 
SCCF RECON,ioos:station:SCCF:12:1,2009-05-03T16:00:00Z,26.4966,-82.1479,2.461,6.43,1111122 
SCCF RECON,ioos:station:SCCF:12:1,2009-05-03T17:00:00Z,26.4966,-82.1479,2.385,6.33,1111122 
SCCF RECON,ioos:station:SCCF:12:1,2009-05-03T18:00:00Z,26.4966,-82.1479,2.284,6.43,1111122 
SCCF RECON,ioos:station:SCCF:12:1,2009-05-03T19:00:00Z,26.4966,-82.1479,2.196,6.6,1111122 
SCCF RECON,ioos:station:SCCF:12:1,2009-05-03T20:00:00Z,26.4966,-82.1479,2.126,6.86,1111122 
SCCF RECON,ioos:station:SCCF:12:1,2009-05-03T21:00:00Z,26.4966,-82.1479,2.13,6.93,1111122 
SCCF RECON,ioos:station:SCCF:12:1,2009-05-03T22:00:00Z,26.4966,-82.1479,2.22,6.81,1111122 
SCCF RECON,ioos:station:SCCF:12:1,2009-05-03T23:00:00Z,26.4966,-82.1479,2.34,6.9,1111122 
SCCF RECON,ioos:station:SCCF:12:1,2009-05-04T00:00:00Z,26.4966,-82.1479,2.42,6.88,1111122 
SCCF RECON,ioos:station:SCCF:12:1,2009-05-04T01:00:00Z,26.4966,-82.1479,2.47,7.05,1111122 
SCCF RECON,ioos:station:SCCF:12:1,2009-05-04T02:00:00Z,26.4966,-82.1479,2.48,6.86,1111122 
SCCF RECON,ioos:station:SCCF:12:1,2009-05-04T03:00:00Z,26.4966,-82.1479,2.44,7.56,1111122 
SCCF RECON,ioos:station:SCCF:12:1,2009-05-04T04:00:00Z,26.4966,-82.1479,2.39,6.88,1111122 
SCCF RECON,ioos:station:SCCF:12:1,2009-05-04T05:00:00Z,26.4966,-82.1479,2.3,7.07,1111122 
SCCF RECON,ioos:station:SCCF:12:1,2009-05-04T06:00:00Z,26.4966,-82.1479,2.201,7.61,1111122 
SCCF RECON,ioos:station:SCCF:12:1,2009-05-04T07:00:00Z,26.4966,-82.1479,2.1,7.26,1111122 
SCCF RECON,ioos:station:SCCF:12:1,2009-05-04T08:00:00Z,26.4966,-82.1479,2.01,7.2,1111122 
SCCF RECON,ioos:station:SCCF:12:1,2009-05-04T09:00:00Z,26.4966,-82.1479,1.96,6.99,1111122 
SCCF RECON,ioos:station:SCCF:12:1,2009-05-04T10:00:00Z,26.4966,-82.1479,2.016,6.57,1111122 
SCCF RECON,ioos:station:SCCF:12:1,2009-05-04T11:00:00Z,26.4966,-82.1479,2.15,5.85,1111122 
SCCF RECON,ioos:station:SCCF:12:1,2009-05-04T12:00:00Z,26.4966,-82.1479,2.268,5.7,1111122 
SCCF RECON,ioos:station:SCCF:12:1,2009-05-04T13:00:00Z,26.4966,-82.1479,2.354,6.38,1111122 
SCCF RECON,ioos:station:SCCF:12:1,2009-05-04T14:00:00Z,26.4966,-82.1479,2.43,6.63,1111122 
SCCF RECON,ioos:station:SCCF:12:1,2009-05-04T15:00:00Z,26.4966,-82.1479,2.481,6.64,1111122 
SCCF RECON,ioos:station:SCCF:12:1,2009-05-04T16:00:00Z,26.4966,-82.1479,2.476,6.23,1111122 
SCCF RECON,ioos:station:SCCF:12:1,2009-05-04T17:00:00Z,26.4966,-82.1479,2.406,6.66,1111122 
SCCF RECON,ioos:station:SCCF:12:1,2009-05-04T18:00:00Z,26.4966,-82.1479,2.307,6.88,1111122 
SCCF RECON,ioos:station:SCCF:12:1,2009-05-04T19:00:00Z,26.4966,-82.1479,2.18,6.9,1111122 
SCCF RECON,ioos:station:SCCF:12:1,2009-05-04T20:00:00Z,26.4966,-82.1479,2.07,7.05,1111122 
SCCF RECON,ioos:station:SCCF:12:1,2009-05-04T21:00:00Z,26.4966,-82.1479,2.003,7.12,1111122 
SCCF RECON,ioos:station:SCCF:12:1,2009-05-04T22:00:00Z,26.4966,-82.1479,2.01,7.14,1111122 
SCCF RECON,ioos:station:SCCF:12:1,2009-05-04T23:00:00Z,26.4966,-82.1479,2.09,7.19,1111122 
SCCF RECON,ioos:station:SCCF:12:1,2009-05-05T00:00:00Z,26.4966,-82.1479,2.2,7.01,1111122 
SCCF RECON,ioos:station:SCCF:12:1,2009-05-05T01:00:00Z,26.4966,-82.1479,2.29,6.93,1111122 
SCCF RECON,ioos:station:SCCF:12:1,2009-05-05T02:00:00Z,26.4966,-82.1479,2.35,6.79,1111122 
SCCF RECON,ioos:station:SCCF:12:1,2009-05-05T03:00:00Z,26.4966,-82.1479,2.39,6.63,1111122 
SCCF RECON,ioos:station:SCCF:12:1,2009-05-05T04:00:00Z,26.4966,-82.1479,2.41,6.35,1111122 
SCCF RECON,ioos:station:SCCF:12:1,2009-05-05T05:00:00Z,26.4966,-82.1479,2.37,6.68,1111122 
SCCF RECON,ioos:station:SCCF:12:1,2009-05-05T06:00:00Z,26.4966,-82.1479,2.29,6.66,1111122 
SCCF RECON,ioos:station:SCCF:12:1,2009-05-05T07:00:00Z,26.4966,-82.1479,2.21,7.93,1111122 
SCCF RECON,ioos:station:SCCF:12:1,2009-05-05T08:00:00Z,26.4966,-82.1479,2.12,8.03,1111122 
SCCF RECON,ioos:station:SCCF:12:1,2009-05-05T09:00:00Z,26.4966,-82.1479,2.04,7.7,1111122 
SCCF RECON,ioos:station:SCCF:12:1,2009-05-05T10:00:00Z,26.4966,-82.1479,2.012,6.83,1111122 
SCCF RECON,ioos:station:SCCF:12:1,2009-05-05T11:00:00Z,26.4966,-82.1479,2.081,6.55,1111122 
SCCF RECON,ioos:station:SCCF:12:1,2009-05-05T12:00:00Z,26.4966,-82.1479,2.22,6.22,1111122 
SCCF RECON,ioos:station:SCCF:12:1,2009-05-05T13:00:00Z,26.4966,-82.1479,2.341,6.12,1111122 
SCCF RECON,ioos:station:SCCF:12:1,2009-05-05T14:00:00Z,26.4966,-82.1479,2.44,6.12,1111122 
SCCF RECON,ioos:station:SCCF:12:1,2009-05-05T15:00:00Z,26.4966,-82.1479,2.522,6.53,1111122 
SCCF RECON,ioos:station:SCCF:12:1,2009-05-05T16:00:00Z,26.4966,-82.1479,2.544,7.15,1111122 
SCCF RECON,ioos:station:SCCF:12:1,2009-05-05T17:00:00Z,26.4966,-82.1479,2.48,7.35,1111122 
SCCF RECON,ioos:station:SCCF:12:1,2009-05-05T18:00:00Z,26.4966,-82.1479,2.356,6.94,1111122 
SCCF RECON,ioos:station:SCCF:12:1,2009-05-05T19:00:00Z,26.4966,-82.1479,2.22,6.94,1111122 
SCCF RECON,ioos:station:SCCF:12:1,2009-05-05T20:00:00Z,26.4966,-82.1479,2.09,7.04,1111122 
SCCF RECON,ioos:station:SCCF:12:1,2009-05-05T21:00:00Z,26.4966,-82.1479,1.985,7.18,1111122 
SCCF RECON,ioos:station:SCCF:12:1,2009-05-05T22:00:00Z,26.4966,-82.1479,1.918,7.34,1111122 
SCCF RECON,ioos:station:SCCF:12:1,2009-05-05T23:00:00Z,26.4966,-82.1479,1.93,7.57,1111122 
SCCF RECON,ioos:station:SCCF:12:1,2009-05-06T00:00:00Z,26.4966,-82.1479,2.03,7.42,1111122 
SCCF RECON,ioos:station:SCCF:12:1,2009-05-06T01:00:00Z,26.4966,-82.1479,2.17,7.22,1111122 
SCCF RECON,ioos:station:SCCF:12:1,2009-05-06T02:00:00Z,26.4966,-82.1479,2.29,7.06,1111122 
SCCF RECON,ioos:station:SCCF:12:1,2009-05-06T03:00:00Z,26.4966,-82.1479,2.38,6.83,1111122 
SCCF RECON,ioos:station:SCCF:12:1,2009-05-06T04:00:00Z,26.4966,-82.1479,2.44,6.7,1111122 
SCCF RECON,ioos:station:SCCF:12:1,2009-05-06T05:00:00Z,26.4966,-82.1479,2.44,7.05,1111122 
SCCF RECON,ioos:station:SCCF:12:1,2009-05-06T06:00:00Z,26.4966,-82.1479,2.37,7.07,1111122 
SCCF RECON,ioos:station:SCCF:12:1,2009-05-06T07:00:00Z,26.4966,-82.1479,2.256,6.79,1111122 
SCCF RECON,ioos:station:SCCF:12:1,2009-05-06T08:00:00Z,26.4966,-82.1479,2.15,6.69,1111122 
SCCF RECON,ioos:station:SCCF:12:1,2009-05-06T09:00:00Z,26.4966,-82.1479,2.076,6.56,1111122 
SCCF RECON,ioos:station:SCCF:12:1,2009-05-06T10:00:00Z,26.4966,-82.1479,2.038,6.01,1111122 
SCCF RECON,ioos:station:SCCF:12:1,2009-05-06T11:00:00Z,26.4966,-82.1479,2.061,6.31,1111122 
SCCF RECON,ioos:station:SCCF:12:1,2009-05-06T12:00:00Z,26.4966,-82.1479,2.16,6.35,1111122 
SCCF RECON,ioos:station:SCCF:12:1,2009-05-06T13:00:00Z,26.4966,-82.1479,2.29,6.41,1111122 
SCCF RECON,ioos:station:SCCF:12:1,2009-05-06T14:00:00Z,26.4966,-82.1479,2.4,6.17,1111122 
SCCF RECON,ioos:station:SCCF:12:1,2009-05-06T15:00:00Z,26.4966,-82.1479,2.48,6.34,1111122 
SCCF RECON,ioos:station:SCCF:12:1,2009-05-06T16:00:00Z,26.4966,-82.1479,2.529,6.88,1111122 
SCCF RECON,ioos:station:SCCF:12:1,2009-05-06T17:00:00Z,26.4966,-82.1479,2.492,6.73,1111122 
SCCF RECON,ioos:station:SCCF:12:1,2009-05-06T18:00:00Z,26.4966,-82.1479,2.398,6.88,1111122 
SCCF RECON,ioos:station:SCCF:12:1,2009-05-06T19:00:00Z,26.4966,-82.1479,2.261,7.12,1111122 
SCCF RECON,ioos:station:SCCF:12:1,2009-05-06T20:00:00Z,26.4966,-82.1479,2.12,7.28,1111122 
SCCF RECON,ioos:station:SCCF:12:1,2009-05-06T21:00:00Z,26.4966,-82.1479,1.993,7.11,1111122 
SCCF RECON,ioos:station:SCCF:12:1,2009-05-06T22:00:00Z,26.4966,-82.1479,1.891,7.35,1111122 
SCCF RECON,ioos:station:SCCF:12:1,2009-05-06T23:00:00Z,26.4966,-82.1479,1.834,7.61,1111122 
SCCF RECON,ioos:station:SCCF:12:1,2009-05-07T00:00:00Z,26.4966,-82.1479,1.84,7.78,1111122 
SCCF RECON,ioos:station:SCCF:12:1,2009-05-07T01:00:00Z,26.4966,-82.1479,1.96,7.38,1111122 
SCCF RECON,ioos:station:SCCF:12:1,2009-05-07T02:00:00Z,26.4966,-82.1479,2.134,7.42,1111122 
SCCF RECON,ioos:station:SCCF:12:1,2009-05-07T03:00:00Z,26.4966,-82.1479,2.27,7.02,1111122 
SCCF RECON,ioos:station:SCCF:12:1,2009-05-07T04:00:00Z,26.4966,-82.1479,2.37,6.69,1111122 
SCCF RECON,ioos:station:SCCF:12:1,2009-05-07T05:00:00Z,26.4966,-82.1479,2.42,6.91,1111122 
SCCF RECON,ioos:station:SCCF:12:1,2009-05-07T06:00:00Z,26.4966,-82.1479,2.39,7.09,1111122 
SCCF RECON,ioos:station:SCCF:12:1,2009-05-07T07:00:00Z,26.4966,-82.1479,2.319,6.61,1111122 
SCCF RECON,ioos:station:SCCF:12:1,2009-05-07T08:00:00Z,26.4966,-82.1479,2.23,6.53,1111122 
SCCF RECON,ioos:station:SCCF:12:1,2009-05-07T09:00:00Z,26.4966,-82.1479,2.15,6.41,1111122 
SCCF RECON,ioos:station:SCCF:12:1,2009-05-07T10:00:00Z,26.4966,-82.1479,2.09,5.8,1111122 
SCCF RECON,ioos:station:SCCF:12:1,2009-05-07T11:00:00Z,26.4966,-82.1479,2.079,6.27,1111122 
SCCF RECON,ioos:station:SCCF:12:1,2009-05-07T12:00:00Z,26.4966,-82.1479,2.13,6.33,1111122 
SCCF RECON,ioos:station:SCCF:12:1,2009-05-07T13:00:00Z,26.4966,-82.1479,2.26,6.27,1111122 
SCCF RECON,ioos:station:SCCF:12:1,2009-05-07T14:00:00Z,26.4966,-82.1479,2.399,6.26,1111122 
SCCF RECON,ioos:station:SCCF:12:1,2009-05-07T15:00:00Z,26.4966,-82.1479,2.48,6.24,1111122 
SCCF RECON,ioos:station:SCCF:12:1,2009-05-07T16:00:00Z,26.4966,-82.1479,2.517,6.42,1111122 
SCCF RECON,ioos:station:SCCF:12:1,2009-05-07T17:00:00Z,26.4966,-82.1479,2.493,6.77,1111122 
SCCF RECON,ioos:station:SCCF:12:1,2009-05-07T18:00:00Z,26.4966,-82.1479,2.41,7.7,1111122 
SCCF RECON,ioos:station:SCCF:12:1,2009-05-07T19:00:00Z,26.4966,-82.1479,2.289,7.47,1111122 
SCCF RECON,ioos:station:SCCF:12:1,2009-05-07T20:00:00Z,26.4966,-82.1479,2.143,7.64,1111122 
SCCF RECON,ioos:station:SCCF:12:1,2009-05-07T21:00:00Z,26.4966,-82.1479,2.017,7.8,1111122 
SCCF RECON,ioos:station:SCCF:12:1,2009-05-07T22:00:00Z,26.4966,-82.1479,1.899,8.01,1111122 
SCCF RECON,ioos:station:SCCF:12:1,2009-05-07T23:00:00Z,26.4966,-82.1479,1.79,8.32,1111122 
SCCF RECON,ioos:station:SCCF:12:1,2009-05-08T00:00:00Z,26.4966,-82.1479,1.72,8.26,1111122 
SCCF RECON,ioos:station:SCCF:12:1,2009-05-08T01:00:00Z,26.4966,-82.1479,1.76,7.68,1111122 
SCCF RECON,ioos:station:SCCF:12:1,2009-05-08T02:00:00Z,26.4966,-82.1479,1.928,7.44,1111122 
SCCF RECON,ioos:station:SCCF:12:1,2009-05-08T03:00:00Z,26.4966,-82.1479,2.08,7.42,1111122 
SCCF RECON,ioos:station:SCCF:12:1,2009-05-08T04:00:00Z,26.4966,-82.1479,2.192,6.89,1111122 
SCCF RECON,ioos:station:SCCF:12:1,2009-05-08T05:00:00Z,26.4966,-82.1479,2.29,6.76,1111122 
SCCF RECON,ioos:station:SCCF:12:1,2009-05-08T06:00:00Z,26.4966,-82.1479,2.35,7.08,1111122 
SCCF RECON,ioos:station:SCCF:12:1,2009-05-08T07:00:00Z,26.4966,-82.1479,2.33,7.09,1111122 
SCCF RECON,ioos:station:SCCF:12:1,2009-05-08T08:00:00Z,26.4966,-82.1479,2.26,6.78,1111122 
SCCF RECON,ioos:station:SCCF:12:1,2009-05-08T09:00:00Z,26.4966,-82.1479,2.178,6.52,1111122 
SCCF RECON,ioos:station:SCCF:12:1,2009-05-08T10:00:00Z,26.4966,-82.1479,2.14,5.91,1111122 
SCCF RECON,ioos:station:SCCF:12:1,2009-05-08T11:00:00Z,26.4966,-82.1479,2.13,6.09,1111122 
SCCF RECON,ioos:station:SCCF:12:1,2009-05-08T12:00:00Z,26.4966,-82.1479,2.156,6.4,1111122 
SCCF RECON,ioos:station:SCCF:12:1,2009-05-08T13:00:00Z,26.4966,-82.1479,2.218,6.79,1111122 
SCCF RECON,ioos:station:SCCF:12:1,2009-05-08T14:00:00Z,26.4966,-82.1479,2.33,6.62,1111122 
SCCF RECON,ioos:station:SCCF:12:1,2009-05-08T15:00:00Z,26.4966,-82.1479,2.466,6.35,1111122 
SCCF RECON,ioos:station:SCCF:12:1,2009-05-08T16:00:00Z,26.4966,-82.1479,2.557,6.69,1111122 
SCCF RECON,ioos:station:SCCF:12:1,2009-05-08T17:00:00Z,26.4966,-82.1479,2.584,6.77,1111122 
SCCF RECON,ioos:station:SCCF:12:1,2009-05-08T18:00:00Z,26.4966,-82.1479,2.54,7.97,1111122 
SCCF RECON,ioos:station:SCCF:12:1,2009-05-08T19:00:00Z,26.4966,-82.1479,2.42,7.51,1111122 
SCCF RECON,ioos:station:SCCF:12:1,2009-05-08T20:00:00Z,26.4966,-82.1479,2.274,7.67,1111122 
SCCF RECON,ioos:station:SCCF:12:1,2009-05-08T21:00:00Z,26.4966,-82.1479,2.13,7.9,1111122 
SCCF RECON,ioos:station:SCCF:12:1,2009-05-08T22:00:00Z,26.4966,-82.1479,2.0,7.71,1111122 
SCCF RECON,ioos:station:SCCF:12:1,2009-05-08T23:00:00Z,26.4966,-82.1479,1.892,8.1,1111122 
SCCF RECON,ioos:station:SCCF:12:1,2009-05-09T00:00:00Z,26.4966,-82.1479,1.801,8.11,1111122 
SCCF RECON,ioos:station:SCCF:12:1,2009-05-09T01:00:00Z,26.4966,-82.1479,1.76,7.81,1111122 
SCCF RECON,ioos:station:SCCF:12:1,2009-05-09T02:00:00Z,26.4966,-82.1479,1.837,7.54,1111122 
SCCF RECON,ioos:station:SCCF:12:1,2009-05-09T03:00:00Z,26.4966,-82.1479,2.002,7.33,1111122 
SCCF RECON,ioos:station:SCCF:12:1,2009-05-09T04:00:00Z,26.4966,-82.1479,2.15,7.26,1111122 
SCCF RECON,ioos:station:SCCF:12:1,2009-05-09T05:00:00Z,26.4966,-82.1479,2.26,6.9,1111122 
SCCF RECON,ioos:station:SCCF:12:1,2009-05-09T06:00:00Z,26.4966,-82.1479,2.34,6.99,1111122 
SCCF RECON,ioos:station:SCCF:12:1,2009-05-09T07:00:00Z,26.4966,-82.1479,2.37,7.14,1111122 
SCCF RECON,ioos:station:SCCF:12:1,2009-05-09T08:00:00Z,26.4966,-82.1479,2.348,6.9,1111122 
SCCF RECON,ioos:station:SCCF:12:1,2009-05-09T09:00:00Z,26.4966,-82.1479,2.29,6.58,1111122 
SCCF RECON,ioos:station:SCCF:12:1,2009-05-09T10:00:00Z,26.4966,-82.1479,2.25,6.6,1111122 
SCCF RECON,ioos:station:SCCF:12:1,2009-05-09T11:00:00Z,26.4966,-82.1479,2.247,6.38,1111122 
SCCF RECON,ioos:station:SCCF:12:1,2009-05-09T12:00:00Z,26.4966,-82.1479,2.26,6.44,1111122 
SCCF RECON,ioos:station:SCCF:12:1,2009-05-09T13:00:00Z,26.4966,-82.1479,2.309,6.4,1111122 
SCCF RECON,ioos:station:SCCF:12:1,2009-05-09T14:00:00Z,26.4966,-82.1479,2.392,6.34,1111122 
SCCF RECON,ioos:station:SCCF:12:1,2009-05-09T15:00:00Z,26.4966,-82.1479,2.51,6.4,1111122 
SCCF RECON,ioos:station:SCCF:12:1,2009-05-09T16:00:00Z,26.4966,-82.1479,2.612,6.48,1111122 
SCCF RECON,ioos:station:SCCF:12:1,2009-05-09T17:00:00Z,26.4966,-82.1479,2.644,6.96,1111122 
SCCF RECON,ioos:station:SCCF:12:1,2009-05-09T18:00:00Z,26.4966,-82.1479,2.6,7.2,1111122 
SCCF RECON,ioos:station:SCCF:12:1,2009-05-09T19:00:00Z,26.4966,-82.1479,2.502,6.98,1111122 
SCCF RECON,ioos:station:SCCF:12:1,2009-05-09T20:00:00Z,26.4966,-82.1479,2.367,7.55,1111122 
SCCF RECON,ioos:station:SCCF:12:1,2009-05-09T21:00:00Z,26.4966,-82.1479,2.215,8.06,1111122 
SCCF RECON,ioos:station:SCCF:12:1,2009-05-09T22:00:00Z,26.4966,-82.1479,2.08,7.97,1111122 
SCCF RECON,ioos:station:SCCF:12:1,2009-05-09T23:00:00Z,26.4966,-82.1479,1.95,8.34,1111122 
SCCF RECON,ioos:station:SCCF:12:1,2009-05-10T00:00:00Z,26.4966,-82.1479,1.84,8.23,1111122 
SCCF RECON,ioos:station:SCCF:12:1,2009-05-10T01:00:00Z,26.4966,-82.1479,1.749,7.64,1111122 
SCCF RECON,ioos:station:SCCF:12:1,2009-05-10T02:00:00Z,26.4966,-82.1479,1.729,7.34,1111122 
SCCF RECON,ioos:station:SCCF:12:1,2009-05-10T03:00:00Z,26.4966,-82.1479,1.827,7.47,1111122 
SCCF RECON,ioos:station:SCCF:12:1,2009-05-10T04:00:00Z,26.4966,-82.1479,2.01,7.16,1111122 
SCCF RECON,ioos:station:SCCF:12:1,2009-05-10T05:00:00Z,26.4966,-82.1479,2.138,6.8,1111122 
SCCF RECON,ioos:station:SCCF:12:1,2009-05-10T06:00:00Z,26.4966,-82.1479,2.23,6.62,1111122 
SCCF RECON,ioos:station:SCCF:12:1,2009-05-10T07:00:00Z,26.4966,-82.1479,2.298,6.73,1111122 
SCCF RECON,ioos:station:SCCF:12:1,2009-05-10T08:00:00Z,26.4966,-82.1479,2.31,6.66,1111122 
SCCF RECON,ioos:station:SCCF:12:1,2009-05-10T09:00:00Z,26.4966,-82.1479,2.27,6.59,1111122 
SCCF RECON,ioos:station:SCCF:12:1,2009-05-10T10:00:00Z,26.4966,-82.1479,2.21,6.27,1111122 
SCCF RECON,ioos:station:SCCF:12:1,2009-05-10T11:00:00Z,26.4966,-82.1479,2.195,5.73,1111122 
SCCF RECON,ioos:station:SCCF:12:1,2009-05-10T12:00:00Z,26.4966,-82.1479,2.189,5.52,1111122 
SCCF RECON,ioos:station:SCCF:12:1,2009-05-10T13:00:00Z,26.4966,-82.1479,2.19,5.84,1111122 
SCCF RECON,ioos:station:SCCF:12:1,2009-05-10T14:00:00Z,26.4966,-82.1479,2.247,6.51,1111122 
SCCF RECON,ioos:station:SCCF:12:1,2009-05-10T15:00:00Z,26.4966,-82.1479,2.36,6.02,1111122 
SCCF RECON,ioos:station:SCCF:12:1,2009-05-10T16:00:00Z,26.4966,-82.1479,2.478,5.87,1111122 
SCCF RECON,ioos:station:SCCF:12:1,2009-05-10T17:00:00Z,26.4966,-82.1479,2.546,5.83,1111122 
SCCF RECON,ioos:station:SCCF:12:1,2009-05-10T18:00:00Z,26.4966,-82.1479,2.552,6.42,1111122 
SCCF RECON,ioos:station:SCCF:12:1,2009-05-10T19:00:00Z,26.4966,-82.1479,2.502,6.67,1111122 
SCCF RECON,ioos:station:SCCF:12:1,2009-05-10T20:00:00Z,26.4966,-82.1479,2.4,6.71,1111122 
SCCF RECON,ioos:station:SCCF:12:1,2009-05-10T21:00:00Z,26.4966,-82.1479,2.26,7.42,1111122 
SCCF RECON,ioos:station:SCCF:12:1,2009-05-10T22:00:00Z,26.4966,-82.1479,2.128,7.26,1111122 
SCCF RECON,ioos:station:SCCF:12:1,2009-05-10T23:00:00Z,26.4966,-82.1479,2.005,7.01,1111122 
SCCF RECON,ioos:station:SCCF:12:1,2009-05-11T00:00:00Z,26.4966,-82.1479,1.895,6.84,1111122 
SCCF RECON,ioos:station:SCCF:12:1,2009-05-11T01:00:00Z,26.4966,-82.1479,1.809,6.18,1111122 
SCCF RECON,ioos:station:SCCF:12:1,2009-05-11T02:00:00Z,26.4966,-82.1479,1.744,6.23,1111122 
SCCF RECON,ioos:station:SCCF:12:1,2009-05-11T03:00:00Z,26.4966,-82.1479,1.765,6.65,1111122 
SCCF RECON,ioos:station:SCCF:12:1,2009-05-11T04:00:00Z,26.4966,-82.1479,1.919,6.2,1111122 
SCCF RECON,ioos:station:SCCF:12:1,2009-05-11T05:00:00Z,26.4966,-82.1479,2.05,5.75,1111122 
SCCF RECON,ioos:station:SCCF:12:1,2009-05-11T06:00:00Z,26.4966,-82.1479,2.154,5.93,1111122 
SCCF RECON,ioos:station:SCCF:12:1,2009-05-11T07:00:00Z,26.4966,-82.1479,2.24,6.01,1111122 
SCCF RECON,ioos:station:SCCF:12:1,2009-05-11T08:00:00Z,26.4966,-82.1479,2.29,5.67,1111122 
SCCF RECON,ioos:station:SCCF:12:1,2009-05-11T09:00:00Z,26.4966,-82.1479,2.302,5.37,1111122 
SCCF RECON,ioos:station:SCCF:12:1,2009-05-11T10:00:00Z,26.4966,-82.1479,2.252,5.68,1111122 
SCCF RECON,ioos:station:SCCF:12:1,2009-05-11T11:00:00Z,26.4966,-82.1479,2.192,5.52,1111122 
SCCF RECON,ioos:station:SCCF:12:1,2009-05-11T12:00:00Z,26.4966,-82.1479,2.162,4.93,1111122 
SCCF RECON,ioos:station:SCCF:12:1,2009-05-11T13:00:00Z,26.4966,-82.1479,2.18,5.41,1111122 
SCCF RECON,ioos:station:SCCF:12:1,2009-05-11T14:00:00Z,26.4966,-82.1479,2.243,5.28,1111122 
SCCF RECON,ioos:station:SCCF:12:1,2009-05-11T15:00:00Z,26.4966,-82.1479,2.357,5.39,1111122 
SCCF RECON,ioos:station:SCCF:12:1,2009-05-11T16:00:00Z,26.4966,-82.1479,2.461,5.44,1111122 
SCCF RECON,ioos:station:SCCF:12:1,2009-05-11T17:00:00Z,26.4966,-82.1479,2.536,5.35,1111122 
SCCF RECON,ioos:station:SCCF:12:1,2009-05-11T18:00:00Z,26.4966,-82.1479,2.57,5.65,1111122 
SCCF RECON,ioos:station:SCCF:12:1,2009-05-11T19:00:00Z,26.4966,-82.1479,2.533,5.87,1111122 
SCCF RECON,ioos:station:SCCF:12:1,2009-05-11T20:00:00Z,26.4966,-82.1479,2.431,6.12,1111122 